Location: ????????
(55.5667°N, 37.5833°E)
Time: 14:55:39
(UTC+00:00)

SJ 16-02 - Pass Details

Date: 14 April 2026
Orbit: 582 x 592 km, 75.0° (Epoch: 17 May)

Event Time Altitude Azimuth Distance (km) Brightness Sun altitude
Rises 22:15:08 0° 325° (NW) 2,830 5.4 -24.1°
Reaches altitude 10° 22:17:49 10° 308° (NW) 1,922 4.2 -24.0°
Enters shadow 22:19:45 18° 284° (WNW) 1,474 3.3 -23.9°
